Theta_e
308 310 308 308 308 309 309 311 313 314 315 316 318 319 316 315 316 314 313 317 328 341 340 336 337 337 337 334 331 330 332 333 331 334 339 339 338 338 338 338 339 340 339 338 337 338 339 339 337 337 338 337 336 336 336 335 334 334 334 334 334 333 334 334 334 335 334 334 334 334 335 335 335 335 335 334 334 334 334 334 335 335 334 334 333 332
309 309 309 309 310 310 310 312 313 312 313 315 316 316 314 314 314 310 315 326 332 339 339 336 337 338 335 331 329 328 330 331 329 331 334 336 337 338 338 339 338 339 338 338 338 337 338 339 337 337 338 337 337 336 336 336 334 334 335 335 335 335 335 335 335 336 336 335 335 335 335 335 336 335 335 335 335 335 334 334 334 334 334 333 333 332
310 310 311 310 310 310 310 311 312 312 314 316 315 314 314 314 314 314 325 336 338 339 340 337 337 336 333 331 330 330 329 329 329 329 329 331 333 334 336 338 337 338 338 337 338 337 336 337 337 337 337 337 337 336 337 336 335 336 336 336 336 335 335 335 335 336 335 336 335 336 335 335 335 335 335 334 334 334 333 333 333 332 332 332 333 333
312 314 313 308 308 310 310 310 312 314 315 317 316 315 315 313 314 320 332 338 337 338 339 337 336 335 333 332 330 329 329 329 330 329 328 331 332 331 333 335 336 337 337 337 338 338 337 338 338 337 337 337 337 336 336 337 337 337 337 336 336 335 336 335 336 336 335 335 335 334 334 334 334 335 335 334 334 333 333 333 332 333 333 333 333 333
313 314 310 307 309 312 311 311 312 313 313 314 315 317 316 314 320 329 336 338 338 337 336 336 338 337 334 334 333 330 329 330 330 328 328 331 332 331 331 332 334 336 336 336 337 337 337 338 338 338 337 337 337 337 336 336 337 337 336 337 336 336 336 336 335 335 334 334 334 333 333 334 334 334 334 335 334 333 333 333 333 333 333 333 333 333
314 311 308 309 311 310 311 312 311 313 314 312 314 315 317 327 336 336 335 336 338 339 337 335 340 339 334 335 335 331 331 331 330 329 328 329 329 329 329 330 332 334 333 334 336 336 336 337 337 337 337 337 337 336 336 336 335 335 335 335 336 336 335 334 334 334 334 333 333 333 333 334 334 333 333 333 333 332 332 332 333 333 333 333 332 332
314 309 309 311 311 310 312 311 309 313 314 313 314 313 319 336 340 335 337 339 338 338 335 332 338 341 334 334 334 331 333 332 330 330 329 329 328 328 328 328 329 331 331 332 334 335 334 335 336 336 336 336 336 335 335 336 335 334 334 334 335 335 334 333 332 332 333 333 332 332 332 333 332 332 332 332 331 332 331 332 332 332 333 332 332 332
313 310 310 311 311 311 311 311 310 311 313 314 314 311 322 340 340 335 337 342 339 335 334 332 336 342 337 334 333 331 332 332 331 330 329 329 329 328 327 327 328 330 332 332 333 334 333 332 334 334 334 335 335 334 333 334 334 334 334 334 334 333 333 332 331 331 331 331 331 330 331 331 331 331 330 330 331 331 331 331 331 332 332 332 332 331
311 312 311 310 311 310 311 313 311 310 312 315 313 309 317 333 339 335 333 338 338 332 335 335 335 340 338 334 333 331 332 332 331 329 328 328 328 328 328 328 328 329 332 333 331 331 331 331 331 332 332 332 332 332 331 332 332 331 331 331 331 332 331 331 331 332 331 331 330 330 330 330 330 330 330 330 330 330 331 331 331 331 331 331 330 330
310 311 311 310 311 311 312 312 309 310 313 312 310 310 313 319 326 328 329 334 333 328 333 335 335 339 338 334 334 333 333 333 331 329 328 327 327 327 326 327 327 326 328 330 329 328 329 329 330 330 330 330 330 329 329 329 329 328 328 328 329 330 330 330 330 330 330 330 329 329 329 330 330 329 329 329 329 329 330 330 330 330 330 330 330 329
310 310 311 310 311 311 312 309 307 311 312 308 309 310 312 317 320 324 330 332 329 331 335 335 334 333 332 334 335 333 334 332 330 329 328 327 327 326 325 325 325 324 325 326 326 326 327 328 328 328 328 328 328 327 326 326 326 326 326 326 327 327 327 328 327 328 328 328 328 328 329 329 329 329 328 328 328 329 329 329 329 329 329 329 329 328
310 310 310 310 311 310 310 309 307 309 309 309 314 312 312 319 319 319 326 325 323 330 333 333 332 328 328 333 333 333 335 331 329 329 328 327 326 325 325 324 324 324 324 325 325 324 324 326 326 326 326 326 325 324 324 324 324 324 324 324 325 325 325 325 325 326 326 327 327 327 327 327 326 326 326 326 326 326 326 326 326 325 325 324 324 324
312 313 311 310 311 311 311 311 308 308 308 310 316 314 312 317 314 313 321 321 323 326 322 325 330 329 331 331 326 331 335 332 329 328 327 327 326 325 324 323 323 323 323 323 324 323 323 323 324 324 323 323 323 323 323 323 322 322 322 322 323 323 322 322 322 323 323 324 324 323 323 323 322 322 322 322 322 322 322 322 322 321 321 320 320 320
312 314 312 311 311 311 311 311 310 310 310 310 314 314 313 316 313 312 318 318 321 323 320 322 329 332 334 327 321 325 331 329 329 328 327 326 324 324 323 323 323 323 323 323 323 323 322 322 322 322 322 322 322 322 322 322 321 321 321 321 321 321 320 320 319 320 320 320 320 319 319 319 318 318 318 318 318 318 318 318 318 318 317 317 317 317
313 314 314 313 311 311 312 311 312 313 310 309 312 313 315 320 318 315 318 318 319 324 323 323 329 333 333 326 320 322 325 327 329 327 326 325 323 323 322 322 323 322 323 323 322 322 321 321 322 321 321 322 321 321 321 320 320 320 319 319 319 318 318 318 318 318 318 317 317 317 316 316 316 315 315 315 315 315 315 315 315 315 315 315 315 315
311 312 315 313 310 311 311 309 310 311 310 309 311 313 312 318 324 319 318 322 325 327 326 326 328 328 328 325 322 323 325 326 327 325 324 323 322 322 322 321 322 323 322 322 321 321 321 321 321 320 320 320 320 320 319 319 319 318 318 318 317 317 316 316 316 316 316 315 315 315 315 314 314 314 313 313 314 314 314 314 314 314 314 314 314 314
312 315 315 311 309 310 310 309 309 311 312 310 310 312 310 313 324 322 314 318 324 324 323 325 327 326 326 327 324 324 326 325 324 324 323 322 322 321 321 321 321 321 321 321 320 320 320 319 319 319 319 318 318 318 318 318 317 317 317 317 316 316 315 315 315 314 314 314 314 313 313 313 313 313 313 313 313 313 313 314 314 313 313 313 313 313
317 319 315 312 311 310 309 309 310 308 311 312 310 311 311 310 319 324 319 320 323 323 324 324 327 328 330 332 327 326 328 326 323 323 321 321 321 320 320 320 321 320 320 320 319 319 318 318 318 318 318 317 317 317 317 316 316 316 316 315 315 315 314 314 313 313 313 312 312 312 312 311 311 311 311 312 312 313 313 313 313 312 312 312 312 312
317 319 316 313 313 311 309 309 311 308 308 311 310 311 313 313 315 319 320 320 318 323 329 327 326 327 329 330 328 328 329 327 323 321 321 321 320 320 319 320 320 319 319 318 318 318 317 317 317 317 317 317 317 316 316 316 316 316 315 315 314 313 312 312 312 312 311 311 311 310 310 310 310 310 310 311 311 312 312 312 312 312 311 311 311 311
317 318 316 314 312 312 310 309 311 311 308 309 310 309 313 317 316 315 318 320 319 324 329 329 327 327 328 326 326 328 327 325 323 321 320 320 319 319 319 319 319 318 318 318 317 317 317 317 317 317 317 316 316 316 315 315 315 315 314 314 313 311 311 310 310 310 310 309 309 308 308 308 308 308 309 309 310 311 311 311 310 310 310 310 310 310
313 314 318 318 312 310 312 311 311 311 310 310 311 310 312 315 315 314 317 319 323 329 330 329 330 332 330 325 324 326 325 323 322 320 320 319 319 319 319 318 318 318 317 317 317 317 316 316 316 316 316 316 315 315 315 315 315 314 313 312 311 309 309 309 309 309 308 308 307 307 307 307 307 307 307 307 308 308 308 307 307 307 307 307 308 308
313 316 324 323 314 312 315 314 312 311 310 312 313 312 312 315 315 314 315 317 325 333 331 331 335 335 330 324 323 325 324 322 320 320 319 319 318 318 318 318 318 317 317 317 317 317 316 316 316 315 315 315 315 315 314 314 313 313 312 311 309 308 307 307 307 307 306 306 306 306 306 306 306 305 306 306 306 306 306 305 305 305 305 305 305 305
316 319 320 320 319 318 314 312 312 311 310 311 312 312 313 316 315 314 316 319 322 325 324 325 331 332 325 322 324 324 321 320 320 319 319 318 318 318 317 318 318 317 317 317 317 316 315 315 314 314 313 314 314 314 314 313 312 312 311 309 307 306 306 306 305 305 305 304 304 304 304 304 304 304 304 304 304 304 304 303 303 303 302 302 302 302
314 314 315 318 321 320 315 312 311 310 310 311 313 312 312 316 319 321 328 325 320 324 326 323 324 331 325 319 320 321 319 319 319 318 318 318 317 317 317 317 317 317 317 316 316 315 313 313 312 312 312 312 313 313 312 312 312 311 310 307 306 306 305 305 304 303 303 303 303 303 302 303 302 302 302 302 302 302 301 301 301 301 300 300 300 300
311 314 318 318 316 316 316 314 311 310 311 315 319 316 312 316 321 322 325 321 318 326 329 323 326 330 324 317 318 319 318 318 318 318 318 317 317 316 316 316 317 317 316 315 314 312 311 311 311 311 311 312 312 312 311 311 311 310 308 306 306 305 305 304 303 303 302 302 302 301 301 301 301 300 300 300 299 299 299 299 299 298 298 298 298 298
313 316 320 320 319 318 319 322 323 319 315 316 318 315 312 315 318 318 320 317 316 320 323 326 331 327 319 317 319 318 318 318 318 318 318 317 317 316 315 315 316 315 314 313 312 310 310 310 310 310 310 311 311 311 310 310 309 308 307 306 306 305 304 303 303 302 302 301 300 300 300 300 299 299 299 298 298 298 298 297 297 296 296 296 296 296
319 317 317 323 327 325 326 328 324 319 316 315 315 315 313 314 316 320 323 321 319 321 323 327 328 324 320 319 319 318 317 318 317 317 317 316 316 315 314 314 314 313 313 312 310 309 309 309 309 309 310 311 310 310 309 309 308 307 306 306 305 304 303 303 302 301 300 299 299 299 299 299 298 297 297 296 296 296 296 296 295 295 295 295 295 295
320 315 315 321 322 321 323 321 317 318 318 315 315 316 315 316 319 320 321 323 323 322 324 323 322 328 326 319 319 319 317 317 317 317 317 316 315 314 313 312 312 311 311 310 309 309 309 309 308 309 310 310 309 309 308 308 307 306 306 305 304 304 303 302 301 299 298 298 298 298 299 298 297 296 295 295 295 295 295 295 295 295 295 295 295 295
319 314 315 317 318 322 322 319 322 328 326 321 321 319 316 318 319 318 321 326 323 320 324 323 323 331 327 318 318 318 317 317 317 316 316 315 314 313 311 311 311 310 310 309 309 309 309 308 308 309 309 309 309 308 308 307 307 306 306 305 304 303 303 302 300 297 297 297 298 298 298 297 296 295 294 295 294 294 294 295 295 295 295 295 295 295
316 316 318 320 321 325 325 323 324 328 327 326 327 325 324 322 320 321 328 326 322 325 328 323 322 326 323 318 318 317 317 317 317 315 315 314 313 312 311 310 310 309 309 309 308 308 308 308 308 308 309 308 308 308 307 307 306 306 305 304 304 303 302 301 299 296 296 297 298 298 298 296 295 294 294 294 294 294 294 294 295 295 295 295 295 295
310 315 321 325 322 322 325 325 323 324 326 328 326 324 326 324 322 327 330 326 327 329 322 318 321 324 321 318 317 316 317 317 315 314 314 313 313 312 310 310 309 308 309 308 308 308 308 308 308 308 308 308 308 307 307 306 305 305 304 304 303 303 302 300 297 295 296 296 297 297 296 295 294 294 294 294 294 294 294 294 294 294 294 294 294 294
311 315 321 324 322 321 322 323 324 323 322 323 325 324 323 323 323 325 325 324 329 328 319 318 323 323 320 317 315 316 316 315 315 314 313 313 312 311 310 309 309 309 309 308 308 308 308 307 307 308 307 307 307 307 306 305 304 304 303 303 303 302 300 297 295 295 295 295 295 295 294 294 294 294 294 294 294 294 294 294 294 294 294 294 294 294
318 322 324 323 321 321 322 324 326 323 319 321 324 320 319 321 321 322 322 321 322 322 321 323 325 321 318 316 316 316 316 315 315 314 313 313 311 311 311 310 309 309 309 308 308 308 308 307 307 307 307 306 306 306 305 303 302 302 303 303 302 300 297 295 295 295 294 294 294 294 294 294 294 294 294 294 294 294 294 294 294 294 294 294 294 294
322 325 325 325 325 322 321 323 323 321 322 324 318 313 315 318 319 323 326 322 319 319 319 322 321 318 316 316 316 317 316 315 315 314 313 312 311 311 310 309 310 309 309 309 308 308 308 307 307 307 306 306 305 304 303 302 301 301 302 302 300 297 296 295 295 295 295 295 294 294 294 294 294 294 294 294 294 294 293 293 293 293 293 293 293 293
322 325 324 324 328 325 322 322 322 325 326 322 314 310 311 313 314 318 319 317 317 319 319 319 318 316 316 316 316 316 316 315 315 313 313 312 312 311 310 309 310 310 309 308 308 308 308 307 306 306 306 305 304 303 302 301 300 300 300 299 298 296 296 295 295 295 294 294 294 293 293 293 293 293 293 293 293 293 293 293 293 293 293 293 293 293
321 326 326 322 322 322 322 320 322 324 320 316 314 312 311 312 314 318 322 320 318 318 320 320 317 315 315 316 316 316 315 314 313 313 312 312 312 312 311 310 310 310 310 309 308 308 307 306 306 306 305 305 304 303 302 301 299 299 298 297 297 297 296 295 295 295 294 294 294 293 293 293 293 293 293 293 293 293 293 293 293 293 293 293 293 293
319 323 327 324 318 320 325 323 322 321 318 320 322 318 314 317 319 322 327 325 318 314 316 318 317 315 315 315 315 315 314 313 313 312 312 311 311 311 311 311 311 310 309 309 309 308 307 306 306 306 305 304 303 302 301 300 299 298 297 297 297 297 297 296 296 296 295 295 294 294 293 293 293 293 293 293 293 293 293 293 293 293 293 293 293 293
319 320 325 325 318 318 325 326 324 324 325 328 329 319 313 315 316 317 324 325 318 312 312 314 316 316 314 313 313 313 313 314 313 312 311 311 310 310 310 310 310 310 309 309 308 307 306 306 306 305 305 304 303 302 301 299 298 298 298 298 298 297 297 297 296 296 296 296 295 295 294 294 293 293 293 293 293 293 293 293 293 293 293 293 293 293
320 320 324 325 320 319 325 328 325 324 326 329 327 317 311 312 312 313 321 328 320 310 311 314 315 314 313 313 313 313 314 316 315 312 310 311 310 310 310 310 309 309 309 308 308 307 306 306 305 305 304 303 302 301 300 299 299 298 298 298 298 298 298 297 296 297 296 296 296 295 295 295 294 294 293 293 293 293 293 293 293 293 293 293 293 293
325 326 326 325 324 321 323 326 324 322 321 321 318 315 313 313 312 314 324 332 320 309 312 315 314 313 314 313 313 314 315 317 316 312 310 310 310 310 311 310 309 309 308 308 307 307 306 305 305 304 303 302 301 300 299 299 299 299 299 298 298 298 298 297 297 297 296 296 296 296 296 296 295 295 294 293 293 293 293 293 293 293 293 293 293 293
324 325 323 323 323 321 322 324 322 321 320 317 315 315 313 312 315 321 329 327 316 310 313 315 313 314 314 312 314 315 314 315 314 311 310 311 310 310 311 310 309 309 308 308 307 306 305 305 305 304 303 302 301 300 299 299 299 299 299 299 298 298 298 297 297 297 297 297 296 296 297 296 296 295 295 294 294 293 293 293 293 293 293 293 293 293
322 320 318 319 319 319 323 326 322 319 318 315 313 313 312 316 326 328 322 316 311 311 314 314 314 314 313 313 314 314 312 313 312 311 310 311 310 310 310 309 308 308 308 307 306 306 305 305 304 304 303 302 301 300 299 299 299 299 299 299 298 298 298 298 297 297 297 297 297 297 297 297 296 296 295 295 294 293 293 293 293 293 293 293 293 292
324 321 321 319 316 318 322 322 321 321 317 312 314 316 315 321 327 321 313 311 312 313 314 313 314 313 313 313 313 312 312 312 311 310 310 310 310 310 309 308 308 307 307 306 306 305 305 304 304 303 303 302 301 300 300 299 299 299 299 299 298 298 298 298 298 297 297 297 297 297 297 297 296 296 295 295 295 294 293 293 293 293 293 293 292 292
321 322 325 322 318 322 327 325 323 321 315 312 316 319 317 318 318 313 311 312 312 313 313 313 313 313 313 312 311 311 311 311 310 310 310 309 309 309 308 307 307 307 306 306 305 305 305 304 304 303 303 302 301 300 300 299 299 299 299 298 298 298 298 298 298 298 297 297 297 297 297 297 297 296 296 295 295 294 294 293 293 293 293 293 292 292
317 316 320 321 319 320 323 322 317 312 309 311 314 314 314 315 314 313 314 314 313 313 314 313 312 312 312 312 311 311 311 310 310 309 309 308 308 308 308 307 307 306 306 305 305 305 304 304 304 303 303 302 301 301 300 299 299 299 299 298 298 298 298 298 298 298 298 297 297 297 297 297 297 296 296 296 295 295 294 293 293 293 293 293 293 292
312 308 312 318 317 314 313 312 310 308 309 311 312 312 313 314 314 313 314 314 314 314 314 313 313 312 312 312 311 310 310 309 309 308 308 308 308 307 307 306 306 306 305 305 304 304 303 303 303 302 302 302 301 301 300 299 299 299 299 298 298 298 298 298 298 298 298 298 297 297 297 297 297 297 296 296 296 295 294 294 293 294 294 293 293 292
311 310 314 316 316 316 316 312 309 309 310 310 312 313 313 314 314 313 314 314 315 314 313 313 313 312 311 311 312 310 309 309 308 307 307 307 307 306 306 306 305 305 305 304 304 304 303 303 302 302 302 301 301 301 300 299 299 299 299 299 298 298 298 298 299 298 298 298 298 297 297 297 297 297 297 296 296 295 295 294 294 294 294 294 293 293
312 312 316 316 314 316 316 310 307 308 308 309 312 313 313 313 314 313 313 314 314 313 313 312 312 311 310 311 311 311 308 307 307 307 306 306 306 306 305 305 305 304 304 304 304 303 303 302 302 301 301 301 301 300 300 299 299 299 299 299 298 298 298 298 298 298 298 298 298 297 297 297 297 297 297 296 296 295 295 295 294 294 294 294 293 293
311 312 314 314 315 316 314 309 307 309 310 309 310 312 312 313 314 313 313 313 313 313 312 311 311 311 310 310 311 311 308 306 307 307 306 305 305 305 305 304 304 303 303 303 303 303 303 302 301 301 301 301 300 300 300 299 299 299 299 299 299 299 298 298 298 298 298 298 298 297 297 297 297 297 297 296 296 295 295 295 294 294 294 294 294 293
312 315 313 314 318 321 319 313 312 315 316 312 310 312 313 312 313 313 312 312 312 313 312 310 309 310 310 310 311 311 308 306 306 306 306 306 305 305 305 304 303 303 303 303 303 303 303 301 300 301 301 300 300 300 299 299 299 299 299 298 298 298 298 298 298 298 298 298 298 298 297 297 297 297 296 296 296 295 295 295 295 294 295 295 294 294
313 314 314 317 321 319 315 311 310 313 315 311 309 312 312 311 312 312 312 312 312 312 312 311 309 309 309 310 310 311 310 307 306 306 306 305 306 305 304 304 303 303 303 303 303 303 303 301 300 300 300 300 300 300 299 299 299 299 298 298 298 298 298 298 298 298 298 298 298 298 297 297 297 297 296 295 295 295 295 295 295 295 295 295 294 294
Wind_Speed
9 5 3 6 6 7 8 8 8 6 6 6 5 4 3 2 2 4 5 5 4 7 5 3 8 8 8 7 8 10 5 4 3 7 10 19 20 19 20 19 19 20 20 18 17 17 17 16 16 17 15 14 14 13 12 11 11 10 10 9 9 8 7 7 6 5 5 4 4 5 5 5 6 7 8 9 9 9 9 10 10 11 11 12 12 12
7 6 6 6 7 9 9 8 8 6 5 5 5 4 2 2 2 3 4 7 5 6 5 6 10 8 7 8 6 7 5 9 3 5 4 10 16 16 19 21 22 21 19 18 17 16 17 16 15 15 15 14 14 13 11 11 11 10 9 8 8 7 6 7 6 5 4 4 4 5 5 6 7 8 8 9 9 9 9 10 11 11 12 13 13 13
4 4 6 6 7 8 6 7 9 6 5 4 3 4 1 2 1 3 5 8 6 4 5 7 9 7 7 8 7 5 6 7 6 2 7 10 13 15 17 19 20 21 20 19 18 16 15 15 14 14 15 13 13 13 10 9 9 8 7 5 4 3 3 4 4 4 5 6 6 7 8 9 9 9 9 8 8 9 10 11 11 12 12 12 12 13
4 5 7 6 8 10 6 5 9 6 4 3 3 4 2 3 2 1 4 6 6 4 7 8 8 5 6 7 7 8 7 6 7 9 11 16 16 14 13 15 17 19 20 21 20 18 16 15 15 14 13 12 12 12 10 8 7 6 5 3 2 2 3 4 4 6 7 9 10 10 11 11 10 9 9 8 8 8 10 11 11 11 11 12 12 12
3 5 9 9 7 10 7 6 9 7 3 1 2 5 3 1 3 2 1 2 6 6 7 10 6 2 4 5 4 5 6 8 11 14 13 15 17 16 12 12 17 19 19 22 21 19 19 17 16 15 13 11 10 10 8 7 5 3 3 1 2 2 3 4 6 8 10 12 12 12 11 11 10 10 9 8 7 7 7 8 9 10 11 12 13 13
4 4 13 11 5 8 8 6 7 7 5 2 3 6 6 6 5 5 4 3 5 2 3 6 4 1 2 6 6 3 5 7 11 13 9 9 14 19 15 9 15 21 20 22 22 20 21 19 17 16 13 11 10 8 7 6 4 3 2 3 4 4 4 5 8 10 11 12 12 12 12 12 13 13 12 11 10 9 8 9 9 10 11 12 13 14
3 4 11 10 7 7 7 5 6 7 7 2 5 6 7 9 8 6 5 4 3 2 2 3 3 2 2 4 5 4 6 7 8 9 8 10 13 16 16 7 11 22 21 23 24 20 20 20 18 16 13 10 10 10 9 8 7 6 5 5 6 6 7 9 11 13 12 13 13 13 14 15 16 16 15 13 12 12 11 11 11 11 13 14 15 16
4 7 7 8 8 7 5 5 6 8 8 3 6 8 10 10 9 7 5 4 3 2 2 3 3 4 2 4 6 6 7 6 6 7 7 11 11 12 17 12 9 19 20 19 22 20 19 19 17 16 14 12 12 11 9 9 7 6 4 5 7 9 11 14 15 15 15 16 16 16 16 17 18 18 16 15 14 14 14 14 13 14 15 17 18 18
4 8 7 8 8 5 5 6 8 9 6 5 6 9 9 9 9 7 5 3 2 3 2 2 2 4 0 2 6 7 8 7 7 8 8 9 10 8 13 15 11 17 18 17 19 19 18 18 16 15 14 12 10 8 6 5 5 3 2 2 5 8 11 14 15 13 14 16 17 18 18 18 18 18 18 17 16 16 17 17 17 17 18 19 20 20
2 10 12 10 6 6 5 6 11 11 4 4 7 7 5 4 4 4 4 4 3 2 3 6 4 3 1 3 7 7 7 9 8 7 8 10 12 10 8 12 13 17 21 21 20 18 16 16 15 13 12 10 8 6 4 3 2 1 3 4 6 8 10 14 14 13 14 16 17 19 19 19 20 21 20 19 19 20 20 21 21 21 22 23 23 23
1 8 13 9 6 7 7 6 10 10 7 7 7 7 6 5 5 4 3 4 3 1 5 7 7 4 2 4 8 7 5 10 10 7 8 11 14 16 12 12 14 18 23 24 22 19 17 15 13 11 9 8 6 5 4 3 3 5 6 8 9 11 12 14 15 16 16 17 18 18 19 21 22 23 22 21 20 20 21 21 22 22 24 25 26 26
2 5 5 5 9 10 8 5 4 4 6 8 5 5 5 2 3 4 4 3 2 4 5 6 8 5 3 4 6 5 4 10 13 11 12 13 16 20 18 16 18 20 22 23 21 19 17 16 13 10 9 7 5 3 3 5 6 7 8 10 13 13 13 12 13 14 15 16 17 17 18 19 19 19 18 17 16 16 16 17 18 19 20 21 21 22
1 2 2 3 12 13 8 5 1 3 2 6 4 6 5 0 1 0 1 1 3 4 4 3 6 3 4 4 3 3 3 8 13 14 17 18 20 21 20 20 22 22 21 21 19 17 16 16 14 11 9 7 4 2 4 6 7 8 9 11 13 12 10 8 9 10 11 12 12 12 13 13 12 12 12 12 13 13 14 14 15 15 16 16 17 17
2 4 4 1 6 11 11 7 4 1 2 5 5 6 5 3 3 4 3 1 2 3 4 1 5 3 3 1 2 5 4 10 19 21 23 24 24 22 23 25 25 22 20 18 17 16 15 15 13 11 9 6 2 1 3 5 8 10 10 10 10 7 6 6 7 7 8 8 8 9 9 9 9 9 9 10 10 11 12 12 12 12 13 14 15 16
5 4 4 3 3 7 9 7 7 6 4 4 5 6 5 5 5 4 3 2 3 2 2 1 3 2 1 0 4 7 4 15 26 25 25 26 26 25 24 26 24 20 18 16 15 16 14 12 10 8 6 3 1 1 3 4 7 8 6 6 6 4 4 5 6 6 6 7 7 7 8 9 9 9 9 9 9 9 9 10 10 10 11 12 13 15
5 3 5 4 5 9 8 5 7 8 4 2 3 5 3 5 5 2 3 5 5 2 0 2 2 1 1 1 2 3 7 17 25 25 25 25 26 27 24 22 23 20 17 16 15 14 12 10 8 6 5 3 3 2 2 2 3 3 3 3 3 3 3 4 5 6 6 6 6 7 7 8 8 9 9 9 8 8 8 9 9 10 11 12 13 14
5 3 5 2 4 7 11 11 8 7 5 1 3 4 4 5 6 4 1 1 3 3 1 1 1 0 0 1 2 8 9 12 17 20 22 24 25 26 24 23 23 21 19 17 16 14 12 11 9 7 6 5 5 5 4 4 2 1 1 2 2 2 3 4 5 5 5 5 6 6 7 7 7 7 7 8 8 8 9 9 9 10 11 12 12 13
5 2 5 5 6 7 12 16 9 8 10 5 4 6 3 2 3 3 2 2 4 2 2 0 1 2 1 1 4 10 10 9 11 14 18 22 25 24 24 26 25 23 22 20 17 15 13 12 10 9 8 7 7 6 4 4 4 4 4 2 2 3 4 4 4 4 4 5 6 6 7 7 7 7 7 8 8 8 8 8 8 10 11 11 12 13
5 2 5 6 9 6 6 10 6 5 6 5 6 8 5 3 2 2 3 2 2 1 2 2 1 3 3 3 7 12 13 11 11 12 14 18 21 23 25 27 26 25 23 21 18 16 15 13 11 10 10 9 8 6 4 5 7 6 4 2 3 3 3 3 3 3 4 5 5 6 7 8 8 8 7 7 7 6 7 7 9 10 12 13 14 15
3 4 2 4 6 6 4 5 6 6 2 4 5 6 2 2 4 3 3 3 4 3 1 1 1 3 4 6 10 14 13 13 12 11 12 15 20 24 27 28 27 25 23 21 20 18 16 15 13 12 12 10 9 7 7 8 8 6 4 1 1 1 1 1 2 3 3 4 6 7 8 8 9 8 7 7 7 6 7 8 10 11 13 13 14 15
3 3 2 3 1 5 4 5 6 7 5 3 5 5 2 2 2 2 1 2 4 4 2 2 2 5 5 5 11 14 12 12 12 11 11 16 22 24 27 29 27 25 24 22 21 19 17 16 15 13 12 10 9 10 10 10 8 5 3 1 1 2 2 2 2 3 4 5 7 7 8 9 9 9 9 9 8 9 9 11 12 13 13 14 14 15
2 3 2 1 1 4 5 5 6 10 9 6 5 6 5 3 4 4 3 1 3 4 4 4 2 6 5 2 6 10 10 10 14 14 13 18 23 25 27 29 28 26 25 23 20 19 19 17 15 13 11 11 11 12 13 11 8 5 3 2 2 4 5 4 4 5 6 6 7 7 8 9 10 10 10 10 10 11 12 13 14 15 15 15 16 16
2 4 3 1 3 5 6 3 4 10 11 8 6 5 5 4 5 7 6 3 3 3 2 4 2 5 5 3 3 8 11 13 18 20 18 19 23 25 26 28 28 27 24 23 21 21 20 17 15 13 12 13 13 14 13 12 9 5 3 3 5 7 8 7 7 7 7 7 7 8 8 9 9 10 10 11 12 13 14 14 15 15 16 16 17 17
2 3 3 2 4 3 3 4 2 3 7 6 4 3 5 4 4 5 5 4 5 4 3 3 2 4 4 2 5 13 16 17 19 22 23 21 22 25 27 27 27 27 25 24 23 22 20 17 15 14 13 14 16 15 14 12 9 6 4 6 7 8 9 8 8 8 8 8 8 9 8 9 9 10 11 12 13 14 14 14 15 15 16 16 16 17
4 2 3 3 0 3 3 2 2 1 2 4 3 3 6 5 6 4 2 4 3 4 6 5 4 5 3 3 7 14 15 15 18 23 26 24 23 24 26 27 28 28 27 26 25 22 20 18 16 14 13 15 17 16 14 12 9 7 7 8 8 9 9 9 9 9 9 9 9 9 9 10 10 11 12 13 13 13 14 14 15 16 16 17 17 17
5 3 3 5 5 4 4 5 4 3 2 2 2 4 6 7 8 5 3 4 3 3 5 5 4 3 0 3 8 12 13 14 17 22 25 26 27 27 27 29 30 31 31 29 26 23 21 19 17 15 15 17 18 16 14 12 9 9 9 9 8 8 9 10 10 9 10 10 10 11 11 11 12 13 14 13 13 13 14 15 16 17 17 18 18 18
3 2 4 6 7 6 6 6 4 3 4 4 4 6 7 7 8 6 5 4 5 4 3 3 4 5 5 7 11 12 13 14 16 21 24 26 29 30 30 31 32 32 32 29 26 25 23 20 18 17 18 19 18 16 14 12 10 10 10 9 9 8 9 10 9 9 10 10 11 13 13 13 14 15 15 15 14 15 16 17 17 18 19 19 19 20
4 2 5 6 6 6 5 5 3 1 4 7 7 8 8 8 7 7 6 6 7 6 3 5 7 9 8 11 14 15 15 14 16 22 25 26 29 31 31 31 31 32 32 30 28 27 24 21 20 19 20 20 19 17 15 12 11 11 10 10 9 8 8 9 9 8 9 10 12 13 13 14 15 16 17 17 17 17 18 18 19 20 20 20 20 21
5 4 5 4 5 2 1 3 2 3 2 1 5 8 9 10 10 10 7 6 9 7 6 9 13 12 11 14 16 16 17 17 20 24 26 28 31 32 32 33 33 34 33 31 30 27 24 23 22 21 21 20 19 18 15 14 13 12 11 10 9 8 8 8 7 7 7 9 12 13 12 13 15 16 17 18 18 18 19 19 20 20 20 20 21 21
3 4 4 5 4 2 4 1 2 5 3 3 1 2 5 8 10 8 5 4 6 3 4 13 17 10 7 12 14 15 18 21 23 25 28 31 32 33 34 34 35 35 35 33 31 28 25 24 23 22 22 21 19 18 16 15 14 12 11 10 9 8 7 6 6 6 8 10 12 12 12 13 15 17 17 18 18 19 19 19 19 19 19 20 20 20
2 3 2 5 5 2 5 4 6 5 4 2 3 5 2 6 5 3 4 4 4 3 2 11 13 5 3 9 15 18 23 24 24 27 30 32 34 35 35 35 36 36 35 34 32 29 26 25 24 24 22 21 20 19 17 16 14 13 12 10 9 8 7 6 7 9 11 12 13 13 13 15 16 17 17 18 17 18 18 18 18 18 19 19 19 19
3 2 2 5 4 3 4 5 6 6 6 3 1 4 2 4 3 2 3 3 5 7 8 9 7 5 5 12 18 20 23 24 24 28 30 31 34 37 36 36 37 37 36 35 34 31 28 27 26 25 23 22 21 19 17 16 15 13 13 11 10 8 8 9 11 14 14 15 15 14 15 16 16 16 16 16 16 16 17 17 17 18 19 19 19 19
5 5 2 3 4 3 2 3 4 5 5 1 4 1 1 2 2 2 1 2 5 10 10 7 6 5 8 14 17 17 19 22 26 31 33 32 34 37 39 41 40 39 38 37 35 32 29 28 27 25 23 22 21 19 17 15 15 15 14 12 11 10 12 14 16 18 18 18 17 17 17 16 15 16 15 15 15 15 15 17 18 19 19 19 19 19
6 7 3 2 4 3 2 1 3 4 3 5 4 4 5 3 3 3 2 3 4 5 4 3 4 9 13 16 19 21 23 27 32 35 35 36 38 37 38 40 41 40 39 37 35 32 29 29 27 25 23 22 20 19 17 16 16 16 15 14 14 15 16 18 19 19 19 19 18 17 16 16 15 15 15 15 15 15 16 17 18 19 20 20 20 20
7 6 3 2 3 3 1 2 3 3 5 6 3 2 5 5 4 4 1 3 4 2 2 4 7 13 16 18 21 24 26 29 33 33 34 38 42 41 39 39 40 40 40 38 36 33 31 30 29 26 25 23 21 21 20 18 18 18 18 17 18 19 19 20 21 21 21 20 19 18 18 17 17 17 17 16 16 16 17 18 19 20 21 21 22 22
9 6 3 2 2 3 2 2 4 5 5 3 4 2 3 3 3 4 1 5 6 4 4 6 7 9 12 15 17 20 24 28 29 29 33 39 42 44 45 44 43 42 41 39 37 34 32 31 29 28 26 24 23 22 20 19 20 21 21 21 21 21 21 22 23 23 23 22 21 20 20 19 19 19 18 18 17 17 18 20 21 22 22 23 23 23
8 7 4 2 1 3 3 1 2 3 3 2 3 3 5 5 4 5 2 5 6 5 6 8 9 9 13 17 20 24 28 26 19 17 28 37 39 41 43 44 44 42 40 38 35 33 31 29 28 28 26 25 24 22 21 21 22 24 25 24 23 22 22 22 23 24 23 23 23 22 21 21 20 20 19 18 18 19 20 21 22 23 23 23 24 25
3 5 6 4 1 2 4 2 1 2 3 5 5 5 6 5 5 6 3 3 4 7 11 12 12 12 15 18 24 29 26 17 8 11 26 35 36 36 38 40 41 40 39 38 35 33 31 29 28 28 26 25 25 23 22 23 24 26 26 25 24 23 22 22 22 23 23 23 23 23 22 22 21 20 20 19 19 20 21 22 23 23 24 24 25 26
6 3 4 5 2 2 4 3 3 3 4 6 5 4 6 7 5 4 2 4 5 12 19 17 15 17 21 25 30 28 19 10 7 15 29 36 36 37 39 39 40 38 37 37 35 34 32 30 29 28 26 26 26 24 24 25 25 25 25 24 24 22 21 21 21 22 22 23 23 22 22 21 21 20 20 20 20 20 21 21 22 23 23 24 26 26
6 5 3 4 4 3 4 3 3 3 3 3 3 4 8 8 4 4 1 6 7 19 27 26 23 24 28 33 31 22 14 11 12 22 34 38 37 38 40 40 40 39 38 36 34 33 32 31 30 29 28 28 27 25 25 25 24 24 24 24 23 22 21 20 20 20 21 21 21 21 21 20 20 20 20 20 19 19 20 20 21 21 22 23 25 25
3 4 2 4 4 3 5 3 2 4 4 3 3 9 12 6 3 3 5 6 10 24 31 32 32 33 37 39 32 22 15 12 17 30 39 38 37 39 39 39 39 39 38 37 35 34 33 32 30 29 28 28 27 26 25 25 24 23 23 23 22 20 20 19 18 19 19 19 19 19 19 19 19 19 19 19 19 18 18 19 19 20 21 22 23 23
1 2 2 3 4 3 3 2 0 3 4 4 6 9 10 5 2 5 4 2 14 27 28 29 33 35 40 39 31 23 18 15 24 38 41 39 40 40 39 39 40 38 37 37 35 34 34 32 30 29 29 28 27 26 26 25 24 23 22 22 21 19 19 18 17 17 17 17 17 17 17 17 17 18 18 18 18 17 17 17 18 18 19 20 21 22
3 2 1 2 3 3 2 3 2 3 5 14 15 6 4 4 3 5 1 3 16 27 25 25 29 32 35 32 24 22 24 27 35 42 42 41 43 42 41 42 42 40 39 37 36 35 34 33 31 30 29 28 27 26 26 25 24 23 22 21 20 19 18 17 16 15 15 15 15 15 15 15 16 17 17 17 17 16 16 16 16 17 18 19 19 20
2 3 2 3 3 4 2 3 4 4 7 19 15 2 6 7 2 2 4 8 17 25 25 25 27 30 33 30 26 27 31 35 41 44 43 44 44 43 43 43 42 41 40 38 36 35 33 32 32 30 29 29 28 26 25 25 24 23 21 21 20 19 17 16 15 14 13 13 12 12 13 13 14 15 15 15 15 15 16 16 16 16 17 18 19 20
2 3 4 2 2 4 3 5 5 4 6 15 7 3 5 9 1 1 7 13 20 26 27 28 29 31 33 32 30 32 35 40 44 46 45 46 45 44 44 43 41 41 39 37 36 34 32 32 31 30 30 30 28 26 25 24 24 23 21 21 20 19 17 16 14 13 12 11 10 10 10 11 12 12 13 13 13 14 14 15 15 16 17 18 19 20
2 3 3 2 1 2 2 2 2 3 4 12 8 2 6 11 4 1 6 13 21 27 30 32 34 35 35 35 33 35 38 42 45 45 45 46 46 45 45 43 42 40 39 38 37 34 32 31 30 30 31 30 29 27 24 23 23 23 21 21 20 19 17 15 14 12 11 9 8 8 8 8 9 10 11 11 11 12 13 14 14 15 16 18 20 21
2 4 2 2 1 3 1 2 3 3 3 9 9 5 7 10 6 3 6 13 20 26 30 33 36 36 36 36 36 37 40 44 45 44 44 46 46 45 45 44 42 40 39 38 37 35 33 31 31 32 31 30 29 27 25 23 23 22 21 20 19 18 16 15 13 12 10 9 7 7 6 6 7 7 8 9 10 10 11 12 13 14 15 17 19 21
3 4 2 1 2 3 3 4 3 2 3 7 9 8 9 11 9 6 7 12 19 24 29 31 34 36 36 35 36 39 41 44 45 45 45 45 45 45 44 43 42 40 38 37 36 34 32 31 32 33 31 30 30 28 25 23 22 22 21 19 18 17 15 14 13 11 10 8 7 6 5 5 4 5 6 7 8 9 9 11 12 13 14 16 18 20
4 3 3 2 1 1 3 4 2 1 2 6 9 9 10 11 11 10 11 14 19 25 27 29 32 35 36 36 37 40 42 42 44 47 46 45 45 45 44 42 41 39 38 36 34 32 30 30 32 33 32 31 30 27 25 23 22 21 20 19 18 16 15 14 13 11 9 9 7 6 5 4 3 3 4 5 6 7 8 9 11 12 13 15 17 19
4 3 3 3 2 2 4 6 8 4 1 7 12 12 11 11 12 12 14 16 21 26 28 30 31 32 34 35 37 40 43 42 42 45 46 45 45 45 43 42 41 38 36 34 32 30 29 29 31 33 32 31 30 28 26 23 21 20 19 18 17 15 14 14 13 11 10 9 8 6 5 3 3 2 3 3 4 5 6 7 9 11 12 14 15 17
3 4 5 5 4 3 5 11 14 5 1 7 14 13 13 12 12 13 15 17 22 27 30 33 35 34 34 35 36 39 43 44 43 44 45 45 45 44 43 42 40 37 35 34 32 31 29 30 32 33 32 31 30 29 26 24 21 20 18 16 15 14 13 13 13 11 10 10 8 7 4 3 2 1 2 3 4 5 5 6 7 9 11 12 13 15
Wind_Direction
160 151 182 187 176 164 162 152 151 157 141 134 118 101 133 181 274 281 286 323 61 90 43 84 128 122 125 105 108 143 127 55 229 224 163 149 149 146 141 136 135 134 138 146 147 144 142 145 150 148 146 150 155 162 165 167 173 176 178 182 185 190 194 209 227 235 249 258 266 275 284 293 304 314 315 313 310 308 309 309 309 311 312 312 313 315
156 178 209 187 165 156 159 156 132 112 99 100 113 96 67 217 287 308 306 332 14 81 80 106 107 89 91 90 102 147 98 64 132 271 338 129 140 134 130 133 134 135 144 149 147 150 151 151 153 150 147 152 158 163 165 166 171 175 182 191 192 194 199 212 232 245 262 281 290 294 304 312 315 318 314 310 309 309 307 303 302 306 307 309 312 316
159 213 216 184 159 134 126 143 130 116 107 92 111 110 65 253 282 317 327 347 6 79 116 113 96 77 81 82 69 92 99 84 137 176 24 77 114 113 122 134 134 137 145 147 146 151 153 153 155 154 152 157 161 161 163 163 161 165 173 188 195 200 223 227 243 265 284 296 300 301 303 306 310 314 314 314 316 314 310 307 308 309 310 312 314 317
170 237 209 170 146 126 102 126 129 111 103 103 121 129 221 248 117 308 317 357 22 72 124 109 86 81 80 79 62 63 86 91 124 134 102 108 122 118 124 138 141 145 145 140 144 149 151 152 154 159 159 160 163 159 159 156 146 149 151 170 218 255 275 279 288 293 298 299 301 304 304 305 307 310 315 318 318 317 315 314 315 318 320 322 321 321
209 236 169 141 142 143 125 128 134 121 127 217 172 156 189 192 130 160 223 24 43 61 113 107 85 80 89 103 97 66 87 98 113 129 128 130 137 136 130 133 148 156 149 141 143 144 147 152 150 155 162 161 161 159 161 159 144 142 142 174 245 252 277 304 311 303 300 299 302 306 307 308 306 303 301 298 297 306 314 317 320 327 331 332 332 332
239 215 147 135 145 149 132 143 160 144 146 238 234 189 166 131 118 110 99 63 58 72 152 119 104 153 107 119 129 120 123 113 115 133 147 140 139 145 144 135 147 152 148 143 145 144 142 145 145 143 147 152 156 165 174 179 183 205 217 240 254 254 266 285 296 297 297 298 301 304 305 306 303 300 297 295 296 304 316 322 325 329 330 332 334 335
218 160 142 143 151 150 139 155 185 155 133 200 232 186 142 119 121 124 116 95 103 194 184 108 115 151 155 141 138 137 132 124 119 130 153 154 152 154 153 157 147 143 139 134 140 146 139 140 147 145 148 161 164 169 173 178 194 209 218 236 250 263 276 285 288 287 292 302 306 307 307 307 307 308 307 308 309 311 317 320 319 320 320 320 321 323
175 145 143 151 147 152 157 165 194 157 129 212 230 161 133 125 144 161 141 119 155 166 83 83 109 113 158 166 146 144 136 135 142 142 156 160 162 161 159 168 143 134 140 137 137 146 143 140 145 145 152 165 163 160 160 162 177 193 207 233 256 274 286 293 293 286 286 296 301 303 305 306 307 309 309 309 309 310 309 308 309 311 312 311 310 310
170 158 158 154 156 173 182 180 175 150 140 228 211 156 145 143 158 170 142 116 133 106 110 217 132 88 214 169 144 154 156 165 179 172 167 159 152 148 154 161 142 131 145 148 142 145 145 141 140 141 142 146 147 149 149 151 161 180 205 258 275 281 283 286 290 287 283 287 293 296 298 298 300 302 301 300 300 300 299 298 300 302 303 303 303 303
170 177 170 154 170 188 177 173 163 155 173 208 157 121 92 90 108 128 120 95 71 74 212 209 153 106 225 188 158 169 183 185 186 171 166 162 146 130 132 145 139 133 138 142 140 139 138 134 132 136 135 132 131 126 116 98 83 40 357 337 310 298 288 281 285 293 292 290 292 293 293 292 291 291 290 288 287 288 288 290 291 292 293 294 296 298
11 171 172 159 171 167 145 154 169 171 154 126 122 104 68 47 55 54 54 72 78 288 248 203 173 158 220 213 175 181 204 182 171 156 159 164 144 132 137 141 136 133 132 133 134 131 129 126 121 123 122 117 109 94 77 45 8 345 333 322 310 305 295 283 282 289 290 290 291 292 292 292 291 290 289 289 289 288 288 288 288 289 290 292 294 296
23 132 176 173 160 141 114 132 181 192 139 116 113 121 102 32 36 33 4 38 121 247 269 212 175 164 215 226 194 198 206 170 169 165 159 159 144 138 147 150 143 139 134 131 132 131 129 127 126 125 117 106 96 66 6 343 334 331 324 312 306 302 293 282 276 276 278 281 285 287 289 290 291 293 294 296 298 298 298 297 297 296 297 298 299 299
212 168 282 181 164 151 123 127 129 343 105 113 108 124 126 126 75 185 270 340 209 230 286 232 161 160 245 238 219 239 221 162 161 160 153 150 144 143 151 151 145 143 138 133 132 131 129 128 130 127 119 114 107 34 328 323 321 319 312 303 298 290 280 274 272 272 274 278 282 285 288 289 292 296 297 299 300 301 302 303 303 303 305 307 308 309
215 277 292 139 173 163 143 141 163 226 168 142 139 144 151 150 153 207 232 320 232 237 307 267 161 201 262 254 274 283 258 146 141 147 150 148 146 148 153 151 147 145 140 134 132 133 134 132 129 125 121 121 112 10 317 312 310 305 296 292 291 281 270 281 287 287 287 288 292 295 298 302 303 302 303 303 304 304 305 306 308 310 311 314 316 319
171 241 227 187 194 166 152 158 160 147 145 164 151 132 149 163 157 192 206 181 194 229 327 139 164 208 208 327 283 274 223 135 133 141 145 145 147 148 150 149 147 146 140 136 137 139 139 134 128 127 126 131 160 247 280 294 296 292 286 284 284 279 284 298 303 306 307 307 311 314 316 319 322 324 325 325 323 319 318 318 319 320 320 321 323 326
159 229 244 209 175 157 155 167 142 122 128 200 138 114 170 186 142 116 177 173 160 142 53 165 185 228 165 325 301 178 149 131 133 139 140 141 145 145 144 144 144 145 142 139 141 141 138 133 129 131 133 147 169 193 223 226 249 267 280 282 275 280 297 308 316 320 319 322 326 330 333 334 338 342 340 340 342 340 341 340 338 337 336 335 335 336
142 244 268 202 167 172 164 165 161 153 159 158 151 169 196 165 119 106 174 66 94 139 204 157 137 341 53 321 148 140 138 134 137 140 139 141 144 143 144 145 145 147 146 145 146 145 142 139 140 140 140 153 163 161 161 158 160 182 205 238 253 282 302 311 322 323 325 334 340 345 349 352 355 357 358 0 3 4 1 355 352 350 346 344 344 346
146 213 264 167 175 219 177 164 175 177 153 132 187 189 146 107 98 106 157 27 49 177 253 355 154 186 159 238 170 153 150 152 147 141 139 144 146 146 147 149 151 151 149 149 150 148 146 146 146 149 153 160 158 149 143 148 159 159 157 192 262 288 303 314 325 334 340 346 356 4 9 15 17 20 21 21 21 17 7 357 356 355 352 352 353 354
134 126 274 198 178 203 164 155 179 200 158 124 174 175 138 168 209 127 153 164 128 200 281 310 229 206 197 199 184 171 168 167 155 144 145 149 150 149 149 151 152 152 150 150 151 149 148 150 155 160 163 160 153 149 151 159 163 158 157 210 274 291 311 327 338 348 356 7 21 27 28 29 29 29 28 26 22 13 2 358 357 355 354 355 355 355
112 112 259 250 186 162 135 156 186 209 204 76 125 169 147 149 179 161 150 161 162 173 232 240 227 239 220 195 190 185 176 167 157 151 154 153 151 150 149 150 151 151 151 151 150 149 149 155 161 161 158 154 151 153 155 159 162 155 151 201 294 339 5 28 19 13 25 38 40 42 43 42 42 40 34 27 20 11 9 8 4 2 1 360 358 358
65 113 186 291 240 158 175 206 184 177 181 125 134 177 190 89 118 154 132 108 133 149 173 161 211 256 246 199 191 184 173 167 159 151 151 150 149 150 150 150 151 152 152 152 151 152 154 158 160 157 154 151 154 156 156 162 167 156 141 119 64 87 104 99 80 66 61 58 54 52 53 50 49 46 40 36 31 31 34 29 24 23 19 15 14 13
88 130 166 290 183 179 225 230 171 166 173 164 164 181 182 150 121 150 214 232 110 130 168 159 202 257 263 245 191 172 161 162 156 148 146 148 149 151 151 152 153 153 152 152 154 156 159 160 159 157 156 155 159 161 161 160 157 153 137 101 99 111 113 105 94 84 74 70 66 61 58 54 51 48 45 45 44 43 42 38 36 35 31 28 27 25
133 120 130 218 214 207 238 262 177 181 174 165 185 186 167 157 142 162 202 212 119 111 137 128 170 259 275 297 177 152 144 148 150 148 145 147 150 150 151 153 153 154 153 155 158 160 160 160 160 157 155 159 164 165 163 154 149 160 154 118 114 113 108 101 94 87 80 78 74 68 65 61 57 54 51 51 50 48 46 43 41 39 35 34 32 31
134 119 130 238 282 294 303 341 21 163 158 169 210 181 160 176 158 159 181 168 149 158 138 114 234 258 291 329 130 135 137 142 148 149 146 148 150 149 151 152 152 153 156 157 160 160 158 157 159 158 159 163 164 164 160 152 153 166 146 121 117 111 105 99 93 89 85 84 83 80 77 71 65 61 57 55 54 52 49 46 44 41 39 37 35 34
179 179 111 129 209 348 349 359 22 36 163 190 208 176 172 155 116 118 130 121 167 195 152 148 227 253 323 28 123 133 137 142 150 153 152 150 149 149 150 152 154 156 158 159 159 159 158 158 160 161 162 164 163 160 157 153 157 156 134 121 116 108 101 95 90 88 88 89 89 87 82 76 70 63 60 59 56 54 52 49 46 44 41 39 36 34
171 185 127 131 153 168 182 199 211 204 204 220 187 174 177 154 143 150 125 122 195 213 148 153 209 231 21 127 145 145 147 151 154 157 157 154 152 153 154 155 158 160 159 159 159 160 159 159 159 159 159 161 160 158 157 158 156 145 132 123 113 99 90 87 84 85 88 89 89 87 82 77 72 67 64 63 60 58 56 52 49 46 44 41 38 35
119 173 155 142 162 180 185 209 234 156 161 197 186 170 178 174 161 139 125 166 186 159 169 210 173 157 174 172 164 161 160 160 160 161 160 157 155 156 158 159 159 160 160 160 161 161 160 158 157 157 157 160 159 158 159 159 153 145 137 126 112 96 86 84 82 83 86 87 86 83 79 75 70 67 67 66 65 62 59 56 52 50 48 45 41 39
83 197 180 151 184 200 180 205 264 81 169 197 182 176 186 181 158 141 162 190 158 138 223 233 162 160 187 186 175 172 169 165 166 165 162 158 156 157 158 159 158 159 160 162 163 163 161 159 159 159 160 161 160 158 158 156 152 146 137 125 114 102 92 85 81 82 85 87 85 81 77 73 68 66 67 67 66 64 61 58 55 52 50 46 42 40
101 190 196 161 193 228 88 217 239 97 131 212 175 182 185 178 178 179 188 184 158 165 216 190 172 182 192 186 183 177 170 167 165 164 160 157 157 159 158 158 159 161 162 164 166 165 163 162 162 162 162 162 161 161 160 157 153 147 138 128 121 111 99 88 82 88 94 91 87 83 79 75 71 69 70 70 68 65 61 58 55 51 47 44 40 38
119 192 189 147 158 21 19 345 90 97 79 16 356 219 185 179 187 182 177 165 149 160 193 169 174 198 199 180 178 168 162 160 158 157 158 159 161 161 160 161 162 163 165 166 166 165 164 164 165 165 163 163 164 164 163 159 154 149 142 135 131 121 106 94 94 104 106 99 93 89 84 80 77 76 74 72 68 64 59 56 52 48 45 41 39 37
169 199 161 118 132 337 355 33 65 79 91 88 1 349 82 142 153 138 140 139 112 64 116 153 165 220 233 153 151 154 157 157 157 161 163 165 165 162 162 164 164 164 167 167 166 164 164 165 167 167 165 164 166 166 163 158 153 150 146 143 140 128 111 105 111 113 110 103 98 95 92 87 84 80 76 71 66 62 57 52 49 46 44 41 39 37
155 158 57 98 133 267 336 53 71 65 75 100 341 351 72 145 164 167 168 173 151 131 119 128 158 222 198 146 145 155 160 160 163 168 168 168 167 165 164 165 166 168 168 167 166 164 164 166 168 167 165 164 165 164 162 157 152 150 149 147 141 127 115 114 113 110 107 103 101 99 95 90 85 79 74 69 63 59 55 51 48 46 44 42 41 38
143 139 126 123 148 237 302 72 81 71 78 205 250 226 198 234 198 161 168 220 167 141 135 157 195 189 157 148 149 157 165 169 173 174 172 169 168 168 169 169 169 171 170 168 167 165 165 168 169 167 166 165 163 161 159 154 149 149 150 146 137 125 119 114 109 105 103 101 100 98 93 88 83 77 72 67 62 58 54 51 48 46 44 43 42 38
136 135 148 148 140 185 231 46 60 84 149 232 243 189 195 218 183 169 208 223 184 151 149 172 157 143 149 161 165 168 175 178 177 175 172 169 168 170 172 172 172 172 170 169 168 167 167 168 167 167 166 163 160 157 152 148 146 145 146 141 132 125 118 112 106 103 101 98 96 94 91 87 83 79 75 71 66 61 56 52 49 47 46 44 42 39
139 130 133 106 109 149 173 73 107 178 226 246 284 235 199 199 181 157 209 257 228 187 135 127 145 159 165 172 173 171 171 170 169 170 172 173 173 173 173 173 173 172 171 170 169 169 168 168 166 166 164 161 158 153 148 145 143 141 141 138 129 121 113 107 104 101 99 98 97 95 92 89 85 82 78 75 70 64 58 54 50 48 46 43 41 39
143 136 122 79 95 141 121 125 176 229 262 289 337 335 147 146 152 127 99 256 227 194 160 149 154 161 154 152 156 157 155 154 157 167 174 177 178 178 176 176 176 176 174 172 172 170 169 168 167 166 163 159 157 153 148 144 141 139 138 134 124 114 108 105 103 101 100 99 97 93 89 85 82 80 77 74 71 66 61 56 53 50 47 44 42 40
139 141 128 77 65 140 129 161 240 307 314 296 300 245 167 158 171 154 169 249 218 188 170 150 141 144 140 136 140 142 143 143 146 168 179 180 181 180 179 179 178 177 175 173 173 170 167 168 167 165 162 159 156 154 148 142 140 138 136 130 121 112 107 105 104 103 101 97 93 89 84 80 77 76 76 74 71 67 61 57 53 50 47 44 41 40
107 151 156 145 125 113 106 89 19 3 265 241 241 213 183 180 179 152 131 277 229 189 175 156 143 146 141 135 138 138 139 143 155 183 183 182 182 180 178 176 175 175 174 172 170 167 166 167 167 164 162 158 155 153 148 143 139 137 134 128 121 113 108 106 105 104 100 94 90 86 82 79 75 73 72 71 69 65 59 55 52 48 46 43 41 40
42 47 122 123 118 121 116 127 170 202 234 241 239 200 176 186 185 131 73 295 234 184 173 161 152 155 152 148 147 144 145 165 195 187 180 179 179 178 176 174 173 173 173 172 169 166 166 168 166 163 161 158 155 152 148 145 141 137 134 129 123 117 111 108 106 104 99 94 90 85 81 78 75 71 69 67 65 62 57 53 50 47 45 43 41 40
32 20 53 105 133 158 134 138 209 231 234 247 244 175 169 178 154 107 221 267 212 179 175 168 162 163 158 153 153 157 170 190 190 179 176 175 176 177 177 174 173 172 171 171 170 168 167 167 165 163 162 159 155 152 149 147 144 141 137 132 128 122 116 112 107 103 99 95 91 87 82 78 74 70 67 63 61 59 55 52 49 47 45 43 41 40
19 17 61 124 134 147 141 142 248 252 237 244 208 165 164 158 93 137 224 248 187 176 178 173 168 166 162 160 164 174 186 192 175 166 167 170 172 174 176 175 173 173 172 171 170 168 167 167 167 165 163 160 157 153 151 149 146 145 142 139 134 128 122 117 111 106 101 96 93 89 84 79 73 69 66 62 57 55 53 50 47 45 43 42 41 40
124 50 82 121 119 135 142 127 231 267 241 181 146 153 158 144 155 205 245 248 176 177 179 176 173 170 167 168 171 170 165 162 160 158 161 167 169 168 170 171 170 170 170 169 168 168 167 167 167 166 164 162 159 156 154 151 148 147 146 145 141 134 128 124 118 111 105 100 96 91 86 80 73 67 64 61 57 53 50 48 45 42 42 41 40 40
161 138 160 172 146 126 68 88 131 263 210 152 133 128 174 170 214 231 274 117 172 178 176 175 176 173 169 168 165 156 150 151 155 158 160 165 167 167 169 170 169 168 168 168 168 169 168 167 168 167 167 165 162 159 158 156 152 149 148 147 144 140 136 132 126 120 112 105 100 94 89 82 74 67 62 58 55 51 48 46 43 40 40 39 39 39
174 151 179 224 181 135 116 170 190 261 197 162 145 121 205 193 291 283 158 142 163 173 173 171 173 174 171 167 158 152 150 151 155 158 159 162 165 165 167 169 169 168 168 168 168 169 169 168 169 170 169 168 165 162 161 161 159 154 150 148 147 145 144 140 135 131 124 115 107 99 93 85 76 68 61 56 53 49 47 45 42 38 37 36 36 37
215 182 169 188 188 163 175 209 235 293 209 183 178 0 182 186 270 299 180 167 165 173 177 172 169 173 175 170 160 153 153 155 157 159 161 162 164 165 167 169 169 168 168 168 168 170 170 169 170 171 170 170 169 165 164 166 165 161 155 152 150 150 149 149 147 142 134 126 117 107 97 88 80 69 60 54 50 47 46 45 41 37 34 33 33 33
213 179 147 117 203 212 220 234 265 314 225 201 216 287 171 177 178 142 189 182 174 176 180 177 174 174 175 172 164 157 157 158 158 160 162 162 163 166 167 168 169 168 169 168 168 170 171 169 170 171 169 169 171 170 168 170 170 166 161 157 154 151 151 155 156 151 143 136 129 118 106 93 83 71 60 53 49 46 45 44 42 38 33 31 31 30
208 162 114 69 146 183 237 315 316 315 235 207 214 225 187 178 173 156 184 189 182 179 181 180 177 175 175 174 168 161 159 160 159 159 161 162 163 165 167 167 168 169 169 169 168 170 171 170 171 171 168 168 171 171 171 172 172 170 167 163 159 156 155 158 161 159 154 150 141 132 122 105 88 72 57 49 46 45 43 42 42 39 34 32 30 29
184 157 132 95 138 178 233 279 304 316 228 204 202 207 196 185 182 172 177 191 188 182 181 182 179 175 173 173 170 164 159 160 160 159 160 162 164 166 167 167 167 167 167 168 169 170 171 172 172 171 170 168 169 171 172 172 172 173 172 168 164 162 160 161 163 162 162 161 155 147 137 122 103 75 54 45 43 44 43 41 41 40 37 34 32 30
128 146 161 127 74 296 264 254 231 50 265 220 206 204 198 190 186 177 176 187 187 181 179 178 178 177 174 172 171 166 161 160 162 161 161 163 164 166 168 168 167 166 165 167 170 172 172 173 174 174 172 170 169 171 173 172 173 175 174 171 169 167 166 167 167 166 168 171 168 163 155 146 131 83 51 43 42 44 45 41 38 39 38 36 34 32
122 152 156 105 86 269 255 208 176 148 265 221 205 199 193 189 187 182 179 182 184 182 178 173 171 174 175 174 173 169 163 161 163 163 163 166 167 168 169 169 167 165 165 168 172 174 174 174 174 173 172 171 171 172 173 173 173 174 174 174 173 172 172 174 174 174 178 181 178 172 169 165 154 103 52 48 49 50 49 43 37 37 37 37 36 34
155 171 173 155 163 240 250 196 175 154 331 199 189 186 185 185 188 187 184 183 184 183 181 176 170 169 171 173 175 173 168 164 165 166 166 168 170 171 170 169 166 164 166 171 173 174 176 175 172 170 170 171 172 174 175 175 175 174 173 173 173 174 178 181 182 183 186 188 186 181 177 175 164 132 76 75 74 67 58 46 38 36 36 36 37 35